Starlink 31510

operational
NORAD ID: 59575 Int'l Des: 2024-076 Owner: SPXS Country: US Constellation: starlink
LEOCIRCULAR

Über Starlink 31510

Beschreibung wird geladen...

Live-Position

3D-Globus wird geladen...

Nächste Überflüge

Höhenverlauf

Altitude vs Time

uPlot chart will show altitude changes over time

Zweizeiliger Elementsatz

1 59575U 24076M 25308.48754752 .00001289 00000-0 56341-4 0 9993
2 59575 43.0018 352.7103 0001475 265.7621 94.3062 15.27590072 87395
Epoch: 4. Nov. 2025 • Age: 8 hours

Aktueller Status

Höhe 486.4 km
Geschwindigkeit 7.62 km/s
Subsatellitenpunkt -17.85°S, 4.96°W
Startdatum 23. Apr. 2024
Alter 1.5 years
Typ internet

Technische Details

Klassifizierung Payload
Masse 730.00 kg
Trockenmasse 700.00 kg
Gesamtmasse 730.00 kg
Länge 0.30 m
Durchmesser 4.10 m
Spannweite 29.00 m
Form Box + pan
Hersteller SPXS
Bus-Typ Starlink V2M
Phasenstatus In Orbit
Besitzer/Staat SPXS/US

Große Konstellationen

Loading constellations...